Location: Home
(42.5358°N, 72.7383°W)
Time: 22:20:22
(UTC-05:00)

Vanguard 2 Rocket - Pass Details

Date: 07 December 2021
Orbit: 554 x 3325 km, 32.9° (Epoch: 21 January)

Event Time Altitude Azimuth Distance (km) Brightness Sun altitude
Rises 20:26:23 0° 264° (W) 3,748 10.8 -44.9°
Reaches altitude 10° 20:28:46 10° 255° (WSW) 3,063 10.1 -45.4°
Enters shadow 20:32:19 28° 232° (SW) 2,366 9.1 -46.0°
Maximum altitude 20:35:52 38° 190° (S) 2,319 - -46.6°
Drops below altitude 10° 20:47:39 10° 129° (SE) 5,067 - -48.8°
Sets 20:52:55 0° 124° (ESE) 6,501 - -49.7°
